Location: Bodest
(46.3000°N, 22.5667°E)
Time: 12:08:55
(UTC+00:00)

SL-19 R/B - Visible Passes

Search period start: 29 May 2022 00:00
Search period end: 08 June 2022 00:00
Orbit: 874 x 1208 km, 100.6° (Epoch: 29 May)

Date Brightness Start Highest point End Pass type
(mag) Time Alt. Az. Time Alt. Az. Time Alt. Az.
29 May 8.1 02:07:13 10° ENE 02:09:19 12° NE 02:11:28 10° NNE visible
29 May 7.7 20:04:21 10° NNW 20:08:14 16° NW 20:12:12 10° W visible
30 May 6.8 19:02:43 10° N 19:08:56 35° WNW 19:15:18 10° WSW visible
31 May 7.6 19:47:41 10° N 19:52:28 20° NW 19:57:21 10° W visible
01 Jun 6.4 18:46:24 10° N 18:53:01 43° WNW 18:59:47 10° SW visible
01 Jun 8.1 20:33:56 10° NNW 20:35:42 11° NW 20:37:29 10° NW visible
02 Jun 7.4 19:31:10 10° N 19:36:39 25° NW 19:42:14 10° WSW visible
03 Jun 7.8 20:16:37 10° NNW 20:20:00 14° NW 20:23:25 10° WNW visible
04 Jun 7.0 19:14:46 10° N 19:20:50 31° WNW 19:26:56 10° WSW visible
05 Jun 8.2 02:03:14 10° ENE 02:05:13 12° NE 02:07:16 10° NNE visible
05 Jun 7.7 19:59:52 10° N 20:04:16 18° NW 20:08:43 10° W visible
06 Jun 6.6 18:58:27 10° N 19:04:56 38° WNW 19:11:29 10° SW visible
07 Jun 7.6 19:43:19 10° N 19:48:30 22° NW 19:53:43 10° W visible
